Flag for U.S.A. Weather past 2 weeks in Fort Wayne, Indiana, U.S.A.

Now
63 °F

Overcast.


Feels Like: 63 °F
Forecast: 59 / 70 °F
Wind: 8 mph from Northwest

Location: Fort Wayne International Airport

Current Time: Jul 8, 2015 at 1:04:04 AM

Latest Report: Jul 7, 2015 at 11:54 PM


Visibility: 10 mi

Pressure: 30.03 "Hg

Humidity: 78%

Dew point: 56 °F

Location of Fort WayneLocation

Historic Weather in Fort Wayne — Graph

°F

Fort Wayne temperature yesterday

Maximum temperature yesterday: 77 °F (at 8:54 AM)
Minimum temperature yesterday: 63 °F (at 11:54 PM)
Average temperature yesterday: 72 °F

Past Weeks' High & Low Weather Summary

 TemperatureHumidityPressure
High85 °F (Jul 6, 4:54 PM)100% (Jun 30, 3:54 AM)30.19 "Hg (Jun 30, 3:54 AM)
Low56 °F (Jun 28, 5:54 AM)40% (Jun 28, 5:54 PM)29.73 "Hg (Jun 27, 7:54 AM)
Average68 °F76%29.95 "Hg
* Reported Jun 22 11:54 PM — Jul 7 11:54 PM, Fort Wayne, Weather by CustomWeather, © 2015

Note: Actual official high and low records may vary slightly from our data, if they occured in-between our weather recording intervals... More about our weather records

Advertising

Fort Wayne weather history for previous 24 hours

 ConditionsComfort  
Time TempWeatherWind HumidityBarometerVisibility
11:54 PM
Tue, Jul 7
63 °FOvercast.8 mph78%30.03 "Hg10 mi
10:54 PM64 °FOvercast.6 mph75%30.03 "Hg10 mi
9:54 PM65 °FOvercast.10 mph73%30.00 "Hg10 mi
8:54 PM67 °FOvercast.10 mph73%29.97 "Hg10 mi
7:54 PM69 °FMostly cloudy.10 mph76%29.96 "Hg10 mi
6:54 PM70 °FOvercast.9 mph76%29.94 "Hg10 mi
5:54 PM70 °FCloudy.15 mph76%29.94 "Hg10 mi
4:54 PM69 °FMore clouds than sun.12 mph81%29.94 "Hg10 mi
3:54 PM68 °FLight rain. Mostly cloudy.13 mph90%29.93 "Hg10 mi
2:54 PM69 °FLight rain. Mostly cloudy.9 mph93%29.92 "Hg7 mi
2:04 PM71 °FLight rain. Fog.12 mph93%29.92 "Hg6 mi
1:54 PM72 °FLight rain. Mostly cloudy.10 mph91%29.90 "Hg8 mi
12:54 PM75 °FOvercast.8 mph88%29.89 "Hg10 mi
12:03 PM74 °FLight rain. Mostly cloudy.8 mph91%29.91 "Hg10 mi
11:54 AM74 °FLight rain. Cloudy.9 mph91%29.89 "Hg10 mi
10:54 AM72 °FLight rain. Fog.7 mph91%29.89 "Hg6 mi
10:00 AM72 °FLight rain. Fog.14 mph87%29.90 "Hg1 mi
8:54 AM77 °FOvercast.9 mph85%29.88 "Hg7 mi
7:54 AM76 °FOvercast.10 mph88%29.89 "Hg7 mi
6:54 AM75 °FMostly cloudy.13 mph88%29.86 "Hg7 mi
5:54 AM75 °FPartly cloudy.13 mph88%29.87 "Hg8 mi
4:54 AM75 °FMostly cloudy.12 mph88%29.88 "Hg8 mi
3:54 AM74 °FOvercast.10 mph88%29.89 "Hg7 mi
2:54 AM75 °FOvercast.8 mph85%29.90 "Hg7 mi
1:54 AM75 °FHigh level clouds.9 mph82%29.90 "Hg7 mi
Weather by CustomWeather, © 2015

See weather overviewHow to use our weather pages